Location: Nitra
(0.0000°N, 18.0833°E)
Time: 21:08:21
(UTC+02:00)

Daily predictions for brighter satellites

Satellite Brightness Start Highest point End
(mag) Time Altitude Azimuth Time Altitude Azimuth Time Altitude Azimuth
ATLAS 3B CENTAUR R/B 3.2 18:58:41 10° NW 19:09:56 53° NNE 19:14:48 10° E
STARLINK-1082 3.7 19:08:59 10° NNW 19:13:03 63° NE 19:17:09 10° SE
Cosmos 1302 Rocket 4.3 19:09:16 10° N 19:14:19 47° ENE 19:19:22 10° SSE
Cosmos 1340 Rocket 4.3 19:13:26 10° SE 19:16:14 18° E 19:18:59 10° NE
Aureole 3 3.7 19:13:32 10° S 19:17:08 70° W 19:21:37 10° N
STARLINK-1100 3.6 19:13:56 10° NNW 19:18:02 74° NE 19:22:10 10° SE
STARLINK-1083 3.6 19:18:51 10° NNW 19:22:58 85° NE 19:27:07 10° SE
STARLINK-80 4.2 19:20:48 10° S 19:24:11 31° SE 19:27:33 10° ENE
STARLINK-1125 3.7 19:23:49 10° NW 19:27:56 82° WSW 19:32:05 10° SSE
Cosmos 2058 Rocket 4.2 19:24:40 10° SE 19:28:09 22° E 19:31:38 10° NE
Cosmos 1726 Rocket 4.0 19:24:15 10° SSE 19:28:19 39° E 19:32:23 10° NNE
TSX-5 3.7 19:28:26 10° N 19:31:27 38° ENE 19:34:22 10° SE
STARLINK-1109 3.9 19:28:47 10° NW 19:32:54 71° SW 19:37:01 10° SSE
Cosmos 1626 Rocket 3.5 19:29:00 10° N 19:33:13 57° E 19:37:27 10° SSE
NOAA 11 4.2 19:28:19 10° SSE 19:33:38 58° ENE 19:38:57 10° N
GOES 2 Rocket 4.2 19:31:52 10° NNW 19:35:28 26° NNE 19:37:55 16° ENE
Cosmos 2228 2.9 19:31:23 10° S 19:35:36 64° E 19:39:49 10° NNE
Cosmos 1140 Rocket 3.7 19:32:34 10° SSW 19:37:47 76° WNW 19:42:57 10° N
STARLINK-1091 4.1 19:33:48 10° NW 19:37:52 60° SW 19:41:57 10° SSE
STARLINK-1072 4.5 19:38:53 10° NW 19:42:52 50° SW 19:46:53 10° SSE
USA 234 3.2 19:36:43 10° NE 19:43:11 69° SE 19:49:42 10° SSW
SWIFT 3.0 19:40:35 10° SW 19:44:32 39° SSE 19:46:30 24° ESE
NATO 3D Rocket 4.1 19:40:20 10° W 19:45:14 54° SSW 19:50:06 17° SE
Cosmos 1602 Rocket 3.5 19:41:48 10° N 19:46:05 63° E 19:50:21 10° SSE
Cosmos 1939 Rocket 2.7 19:42:48 10° SSE 19:46:48 71° ENE 19:50:41 10° N
CZ-4 R/B 1.5 19:46:50 10° S 19:50:43 73° WSW 19:54:32 10° NNW
Nadezhda 1 Rocket 4.0 19:44:49 10° S 19:51:10 68° E 19:57:30 10° N
CZ-2D R/B 3.1 19:50:59 10° SSE 19:54:49 86° ENE 19:58:37 10° N
Delta 2 Rocket 4.0 19:49:20 10° SW 19:55:26 55° SSE 19:58:36 27° E
Cosmos 1626 4.4 19:52:31 10° NW 19:55:41 27° W 19:58:54 10° SSW
Cosmos 1606 Rocket 4.5 19:54:58 10° SSW 19:59:14 51° W 20:03:30 10° N
Sylda 4400 3.2 19:55:32 10° W 20:01:26 68° S 20:02:13 48° ESE
CZ-2C R/B 3.9 19:59:06 10° NNE 20:03:25 45° ESE 20:07:40 10° S
STARLINK-55 3.9 20:00:27 10° SSW 20:02:34 33° S 20:02:34 33° S
Cosmos 2184 Rocket 4.3 19:58:25 10° NNE 20:04:08 40° E 20:07:55 20° SE
Cosmos 292 Rocket 3.7 20:01:58 10° N 20:06:46 70° ENE 20:09:53 22° SSE
STARLINK-28 3.6 20:04:38 10° SSW 20:07:00 43° S 20:07:00 43° S
Cosmos 1758 Rocket 3.5 20:12:30 10° N 20:16:24 58° ENE 20:16:24 58° ENE
Ariane 44P Rocket 4.4 19:13:22 10° W 20:17:17 74° S 20:20:28 38° ESE
CSL-04 Debris 4.4 20:12:39 10° S 20:18:08 70° WSW 20:23:34 10° NNW
Milstar 3 Cent rocket 4.1 20:10:21 10° WNW 20:18:26 68° SSW 20:29:39 24° SE
IRIDIUM 104 4.4 20:20:23 10° N 20:25:34 74° W 20:30:47 10° S
Cosmos 1943 Rocket 2.4 20:22:16 10° NNW 20:27:48 67° WSW 20:31:54 19° S
CZ-3A R/B 4.2 20:05:43 10° WNW 20:28:03 34° N 20:31:45 24° NE
USA 215 4.1 20:30:39 15° SSE 20:35:50 47° SW 20:42:03 10° NW
ISS -0.7 20:32:48 10° NNW 20:32:51 10° NNW 20:32:51 10° NNW
Cosmos 2074 Rocket 4.1 20:38:39 10° N 20:44:54 72° W 20:50:28 14° S
Cosmos 2369 Rocket 2.6 20:43:27 10° NNW 20:48:56 58° WSW 20:50:06 48° SSW
COSMOS 2406 3.4 20:44:24 10° SSW 20:50:00 65° WNW 20:52:26 34° N
DMSP B5D2-2 4.4 20:46:11 10° N 20:51:21 63° WNW 20:56:34 10° SSW
H-2A R/B 4.2 21:22:30 21° NW 21:22:30 21° NW 21:24:16 10° NNW
Ariane H10 4.3 21:21:27 10° W 21:29:06 35° WSW 21:29:06 35° WSW
VEP-3 4.4 12:31:41 10° WNW 21:33:48 57° S 21:33:48 57° S
